Bolton Field, OH

2:19 AM EDT on March 25, 2017 (GMT -0400)
Bolton

Weather History for KTZR - January, 2014

Change the Weather History Date:

Wednesday, January 8, 2014

  Actual Average Record
Temperature  
Mean Temperature 16 °F -  
Max Temperature 24 °F 36 °F 66 °F (2008)
Min Temperature 8 °F 23 °F -9 °F (2015)
Degree Days  
Heating Degree Days 49    
Moisture  
Dew Point 10 °F    
Average Humidity 74    
Maximum Humidity 86    
Minimum Humidity 62    
Precipitation  
Precipitation 0.00 in - - ()
Sea Level Pressure  
Sea Level Pressure 30.41 in    
Wind  
Wind Speed 6 mph (SSW)    
Max Wind Speed 12 mph    
Max Gust Speed -    
Visibility 10 miles    
Events      
Averages and records for this station are not official NWS values.
T = Trace of Precipitation, MM = Missing Value Source: NWS Daily Summary

Daily Weather History Graph

Daily Weather History Graph

Search for Another Location

Airport or City:

Trip Planner

Search our weather history database for the weather conditions in past years. The results will help you decide how hot, cold, wet, or windy it might be!

Date:

Astronomy

Jan. 08, 2014 Rise Set
Actual Time 7:54 AM EST 5:24 PM EST
Civil Twilight 7:24 AM EST 5:54 PM EST
Nautical Twilight 6:50 AM EST 6:28 PM EST
Astronomical Twilight 6:17 AM EST 7:01 PM EST
Moon 12:16 PM EST (1/8) 12:58 AM EST (1/8)
Length of Visible Light 10h 30m
Length of Day
9h 30m
First Quarter, 56% of the Moon is Illuminated
Jan 8
First Quarter
Jan 15
Full
Jan 24
Last Quarter
Jan 30
New
Feb 6
First Quarter

Hourly Weather History & Observations

Time (EST) Temp. Windchill Dew Point Humidity Pressure Visibility Wind Dir Wind Speed Gust Speed Precip Events Conditions
12:15 AM 10.8 °F -2.0 °F 3.0 °F 71% 30.38 in 10.0 mi SW 9.2 mph - N/A   Overcast
12:35 AM 11.1 °F -1.6 °F 3.6 °F 72% 30.37 in 10.0 mi SSW 9.2 mph - N/A   Overcast
12:55 AM 10.8 °F -2.0 °F 3.0 °F 71% 30.37 in 10.0 mi SSW 9.2 mph - N/A   Overcast
1:15 AM 10.8 °F 0.0 °F 3.0 °F 71% 30.37 in 10.0 mi SSW 6.9 mph - N/A   Overcast
1:35 AM 10.2 °F - 2.8 °F 72% 30.38 in 10.0 mi North - - N/A   Scattered Clouds
1:55 AM 10.2 °F - 2.8 °F 72% 30.38 in 10.0 mi North - - N/A   Scattered Clouds
2:15 AM 11.5 °F 5.3 °F 3.4 °F 70% 30.38 in 10.0 mi South 3.5 mph - N/A   Mostly Cloudy
2:35 AM 11.8 °F 3.9 °F 4.1 °F 71% 30.38 in 10.0 mi South 4.6 mph - N/A   Overcast
2:55 AM 12.4 °F 3.1 °F 4.3 °F 70% 30.39 in 10.0 mi South 5.8 mph - N/A   Overcast
3:15 AM 12.9 °F 1.6 °F 4.5 °F 69% 30.39 in 10.0 mi South 8.1 mph - N/A   Overcast
3:35 AM 12.7 °F 1.4 °F 4.1 °F 68% 30.39 in 10.0 mi South 8.1 mph - N/A   Overcast
3:55 AM 12.6 °F 3.4 °F 5.0 °F 72% 30.39 in 10.0 mi South 5.8 mph - N/A   Overcast
4:15 AM 11.3 °F 1.9 °F 4.1 °F 73% 30.38 in 10.0 mi South 5.8 mph - N/A   Scattered Clouds
4:35 AM 10.4 °F 0.8 °F 3.7 °F 74% 30.38 in 10.0 mi South 5.8 mph - N/A   Clear
4:55 AM 10.0 °F -0.9 °F 3.4 °F 74% 30.39 in 10.0 mi South 6.9 mph - N/A   Clear
5:15 AM 9.9 °F - 3.0 °F 74% 30.39 in 10.0 mi North - - N/A   Clear
5:35 AM 9.3 °F 2.8 °F 3.2 °F 76% 30.39 in 10.0 mi South 3.5 mph - N/A   Clear
5:55 AM 9.5 °F 1.2 °F 3.6 °F 77% 30.39 in 10.0 mi SSE 4.6 mph - N/A   Clear
6:15 AM 9.5 °F -0.3 °F 3.2 °F 76% 30.39 in 10.0 mi South 5.8 mph - N/A   Clear
7:22 AM 8.6 °F -1.3 °F -2.2 °F 62% 30.39 in 10.0 mi SSE 5.8 mph - N/A   Clear
7:50 AM 8.6 °F 2.0 °F 3.2 °F 79% 30.40 in 10.0 mi SSE 3.5 mph - N/A   Clear
8:50 AM 10.4 °F -1.5 °F 3.2 °F 73% 30.41 in 10.0 mi SSE 8.1 mph - N/A   Clear
9:50 AM 12.2 °F -0.2 °F 6.8 °F 79% 30.42 in 10.0 mi SSE 9.2 mph - N/A   Mostly Cloudy
10:50 AM 15.8 °F 4.2 °F 8.6 °F 73% 30.44 in 10.0 mi SSW 9.2 mph - N/A   Overcast
11:50 AM 19.4 °F 7.2 °F 10.4 °F 68% 30.41 in 10.0 mi SSW 11.5 mph - N/A   Overcast
12:50 PM 21.2 °F 9.5 °F 12.2 °F 68% 30.38 in 10.0 mi SSW 11.5 mph - N/A   Overcast
1:50 PM 24.8 °F 14.6 °F 14.0 °F 64% 30.36 in 10.0 mi SW 10.4 mph - N/A   Overcast
2:50 PM 24.8 °F 14.6 °F 15.8 °F 69% 30.38 in 10.0 mi SW 10.4 mph - N/A   Overcast
3:50 PM 24.8 °F 15.3 °F 15.8 °F 69% 30.39 in 10.0 mi SW 9.2 mph - N/A   Overcast
4:50 PM 24.8 °F 16.9 °F 15.8 °F 69% 30.39 in 10.0 mi SW 6.9 mph - N/A   Overcast
5:50 PM 24.8 °F 19.1 °F 17.6 °F 74% 30.40 in 10.0 mi SW 4.6 mph - N/A   Overcast
6:35 PM 24.3 °F - 16.5 °F 72% 30.41 in 10.0 mi Calm Calm - N/A   Mostly Cloudy
6:50 PM 24.8 °F - 15.8 °F 69% 30.41 in 10.0 mi Calm Calm - N/A   Scattered Clouds
6:55 PM 24.1 °F - 16.7 °F 73% 30.41 in 10.0 mi North - - N/A   Scattered Clouds
7:15 PM 23.9 °F - 16.7 °F 74% 30.41 in 10.0 mi North - - N/A   Mostly Cloudy
7:35 PM 23.9 °F - 16.2 °F 72% 30.41 in 10.0 mi North - - N/A   Overcast
7:55 PM 23.7 °F - 16.5 °F 74% 30.42 in 10.0 mi North - - N/A   Mostly Cloudy
8:15 PM 22.1 °F - 18.3 °F 85% 30.43 in 10.0 mi Calm Calm - N/A   Scattered Clouds
8:35 PM 22.3 °F - 17.2 °F 81% 30.42 in 10.0 mi Calm Calm - N/A   Scattered Clouds
8:55 PM 22.5 °F - 16.9 °F 79% 30.42 in 10.0 mi Calm Calm - N/A   Mostly Cloudy
9:15 PM 21.9 °F - 16.9 °F 81% 30.44 in 10.0 mi North - - N/A   Overcast
9:35 PM 23.0 °F - 17.8 °F 80% 30.44 in 10.0 mi North - - N/A   Overcast
9:55 PM 23.0 °F - 17.8 °F 80% 30.45 in 10.0 mi Calm Calm - N/A   Overcast
10:15 PM 22.8 °F 18.2 °F 17.6 °F 80% 30.45 in 10.0 mi NNW 3.5 mph - N/A   Overcast
10:35 PM 22.8 °F - 16.9 °F 78% 30.45 in 10.0 mi Calm Calm - N/A   Scattered Clouds
10:55 PM 22.1 °F - 17.1 °F 81% 30.46 in 10.0 mi Calm Calm - N/A   Mostly Cloudy
11:15 PM 22.3 °F - 16.7 °F 79% 30.46 in 10.0 mi Calm Calm - N/A   Overcast
11:35 PM 21.6 °F - 18.0 °F 86% 30.46 in 10.0 mi Calm Calm - N/A   Overcast
11:55 PM 22.6 °F 18.0 °F 19.0 °F 86% 30.46 in 10.0 mi NNW 3.5 mph - N/A   Overcast